Погода Удское

Погода Удское : погода сейчас, прогноз погоды и архив. Всё, что Вы хотите узнать о погоде Удское!

Поиск расширенной информации на нашем сайте:

Другие новости

Новости СМИ2

Главная страница сайта

Новости сайта

03.07.2017

Напоминаем, что на нашем специализированном сайте Метеоцентр.Азия вы можете получить высокодетализированные автоматические прогнозы погоды по пунктам России, СНГ и мира в авиационном формате (включающие направление и скорость ветра, видимость, явления погоды, количество и форму облачности, нижнюю и верхнюю границу облачности).


Погода Удское - сегодня

Время (UTC), дата Ветер
(°,м/с) 
Видим.   Явления Облачность Т
(°С)
Тd
(°С)
f(%) Тe
(°С)
Pmin
(гПа)
dP
(гПа)
Po
(мм)
O2
(г/м3)
Тmin Tmax R s Состояние
почвы
12 14.06.18 020 (С) 10 км  дождь  10/8 300 м средняя 
[Frnb|As op]
+4.7 +4.5 99 +4  1020.9  0.2  760  300           
15 14.06.18 020 (С) 10 км  дождь  10/8 300 м средняя 
[Frnb|As op]
+4.7 +4.5 99 +4  1020.3  -0.6  759  300           
18 14.06.18 020 (С) 10 км  дождь  10/8 300 м средняя 
[Frnb|As op]
+4.6 +4.4 99 +4  1018.5  -1.8  758  300           
00 15.06.18 020 (С) 2000 м    10/10 300 м 
[St]
+6.4 +6 97 +5  1018.9  0.2  758  298           
03 15.06.18 070 (В) 20000 м  в посл. час морось  10/10 300 м 
[St]
+7.4 +6.3 93 +7  1019  0.2  759  297           
06 15.06.18 020 (С) 20000 м  слаб. дождь{морось}  10/8 300 м средняя 
[St|As op]
+8 +6.7 91 +8  1018.4  -0.6  758  296           
12 15.06.18 020 (С) 20000 м  слаб. дождь  10/8 300 м средняя 
[Frnb|As op]
+6 +5.5 97 +6  1017.8  -0.2  758  298           
15 15.06.18 020 (С) 20000 м  {дождь}  10/8 300 м средняя 
[Frnb|As op]
+6 +5.5 97 +7  1017  -0.8  757  298           
18 15.06.18 020 (С) 20000 м  слаб. дождь  10/8 300 м средняя 
[Frnb|As op]
+5.8 +5.3 97 +7  1015.8  -1.2  756  297           
00 16.06.18 020 (С) 20000 м  {дождь}  10/9 600 м кучево-дожд., средняя 
[Cb cap|As op]
+8.2 +7.1 93 +8  1013.3  -1.5  754  294           
03 16.06.18 050 (СВ) 20000 м    9/6 1000 м средняя 
[Sc|Ac trans]
+13.6 +9.3 75 +15  1011.8  -1.3  753  287           
06 16.06.18 090 (В) 20000 м    9/3 600 м кучево-дожд., средняя, верхняя 
[Cb calv|Ac trans|Cs]
+16.9 +11.6 71 +21  1009.4  -2.2  752  283           
12 16.06.18 050 (СВ) 20000 м    10/1 1000 м средняя, верхняя 
[Sc|Ac trans|Cs]
+9.3 +6 80 +9  1008.2  0.1  751  291           
15 16.06.18 050 (СВ) 20000 м    9/0 средняя, верхняя 
[Ac As|Cs]
+6.9 +5.3 90 +7  1007.7  -0.5  750  294           
18 16.06.18 050 (СВ) 20000 м    10/8 300 м верхняя 
[St|Cs]
+6.3 +4.9 91 +5  1006.2  -1.6  749  294           
00 17.06.18 020 (С) 2000 м  дождь  10/8 300 м средняя 
[Frnb|As op]
+5.6 +5.1 97 +4  1004.7  -1.4  748  294           
03 17.06.18 050 (СВ) 2000 м  дождь  10/8 300 м средняя 
[Frnb|As op]
+5.6 +5.1 97 +4  1005.4  0.7  748  295           
06 17.06.18 050 (СВ) 2000 м  ливневой дождь  10/8 300 м средняя 
[Frnb|As op]
+5.8 +5.3 97 +5  1005.3  -0.1  748  294           
12 17.06.18 050 (СВ) 4000 м  дождь{ливн. осадки}  10/9 300 м средняя 
[Frnb|As op]
+5.3 +4.8 97 +4  1005.7  749  295           
15 17.06.18 070 (В) 4000 м  слаб. морось{дождь}  10/10 300 м 
[St]
+5.3 +4.8 97 +5  1007.6  1.9  750  296           
18 17.06.18 070 (В) 10 км  слаб. морось{дождь}  10/10 300 м 
[St]
+5.1 +4.9 99 +5  1007.6  750  296           
00 18.06.18 070 (В) 10 км    10/9 300 м средняя 
[Frnb|As op]
+6.4 +6 97 +5  1007.6  0.4  750  294           
03 18.06.18 050 (СВ) 10 км  слаб. морось{ливн. осадки, дождь}  10/10 300 м 
[St]
+6.4 +6 97 +6  1008.7  1.1  751  295           
06 18.06.18 020 (С) 10 км    10/10 300 м 
[St]
+6.2 +2.8 79 +6    1.3  752  296           
12 18.06.18 050 (СВ) 2000 м  слаб. морось  10/10 300 м 
[St]
+4.7 +4.5 99 +4  1010.9  0.4  752  297           
Время (UTC), дата Ветер
(°,м/с) 
Видим.   Явления Облачность Т
(°С)
Тd
(°С)
f(%) Тe
(°С)
Pmin
(гПа)
dP
(гПа)
Po
(мм)
O2
(г/м3)
Тmin Tmax R s Состояние
почвы

Для получения пояснительной информации подведите курсор к названию столбца.

ПОГОДА Удское - архив

Всё, что Вы хотите узнать о погоде Удское - удобно и подробно!

Выберите нужную дату (начиная с 1 января 2015* года) и нажмите кнопку "Найти".
Будут отображены архивные сводки погоды по пункту Удское, начиная с указанной даты.


Отображать данные в формате CSV (для использования в таблицах Excel)


Внимание! Наш архив погоды предназначен исключительно для личного некоммерческого использования в познавательных целях. Если Вам необходимы официальные справки о состоянии погоды (для производственных, юридических, коммерческих и т.п. целей), обращайтесь в органы Росгидромета.

*Примечание: данная дата относится к архиву по метеостанциям СССР (Россия, СНГ, Балтия).
Архив по метеостанциям Зарубежной Европы и Азии (кроме Китая) хранится 10 дней, по другим регионам земного шара (Китай, Африка, Америка, Австралия, Океания) - 1 день.

Удское - район местоположения метеостанции


Название, широта, долгота, высота метеостанции:
Удское 54.53°ш. 134.42°д. 57 м над ур. моря [Российская Федерация]

Дополнительная информация

В oтличие oт бoльшинства пoгoдных сайтoв мы публикуем пoдрoбную метеoинфoрмацию в детальнoм прoфессиoнальнoм фoрмате.

Характеристики температуры и влажнoсти вoздуха измеряются на высoте 2 м в тени вдали oт зданий и деревьев.
Скoрoсть ветра измеряется на высoте 10 м (на урoвне рoста челoвека скoрoсть ветра ниже в 1.5-2 раза). Если метеoстанция нахoдится в гoрoде или в лесу, тo скoрoсть ветра занижена на 2-4 м/с пo сравнению с oткрытым местoм. Скoрoсть ветра над акватoриями крупных рек и oзёр, а также на вершинах хoлмoв на 2-5 м/с выше, чем в oбычных услoвиях.
Атмoсфернoе давление в разных тoчках местнoсти мoжет значительнo oтличаться oт давления на метеoстанции, в зависимoсти oт услoвий рельефа (при пoдъёме на 10 м давление пoнижается примернo на 1 мм рт.ст.).